AirNav   BOSE A20 Aviation Headset
 
 396 users online  

O74 Elliot's Landing Airport
Mount Victory, Ohio, USA

GOING TO MOUNT VICTORY?


FAA INFORMATION EFFECTIVE 26 APRIL 2018

Location

FAA Identifier: O74
Lat/Long: 40-31-29.0000N / 083-30-42.0000W
40-31.483333N / 083-30.700000W
40.5247222 / -83.5116667
(estimated)
Elevation: 1045 ft. / 319 m (estimated)
Variation: 05W (1995)
From city: 1 mile SE of MOUNT VICTORY, OH
Time zone: UTC -4 (UTC -5 during Standard Time)
Zip code: 43340

Airport Operations

Airport use: Open to the public
Activation date: 06/1995
Control tower: no
ARTCC: INDIANAPOLIS CENTER
FSS: DAYTON FLIGHT SERVICE STATION
NOTAMs facility: DAY (NOTAM-D service available)
Attendance: UNATNDD
Wind indicator: yes
Segmented circle: no

Airport Communications

CTAF: 122.9
WX AWOS-3 at EDJ (17 nm SW): 118.075 (937-599-4654)
WX AWOS-3 at MRT (19 nm S): 119.275 (937-644-2967)

Nearby radio navigation aids

VOR radial/distance  VOR name  Freq  Var
BUDr260/(21.1)BUCKEYE VOR109.8005W
FBCr159/28.1FLAG CITY VORTAC108.2002W
RODr065/28.1ROSEWOOD VORTAC117.5005W

 
NDB name  Hdg/Dist  Freq  Var  ID
TIFFIN207/36.826905WTII - .. ..

Airport Services

Runway Information

Runway 15/33

Dimensions: 2750 x 110 ft. / 838 x 34 m
Surface: turf, in good condition
Runway edge markings: 15/33 MARKED WITH TIRES ON EACH END.
RUNWAY 15  RUNWAY 33
Traffic pattern: leftleft
Obstructions: 63 ft. trees, 867 ft. from runway, 82 ft. left of centerline, 13:1 slope to clear35 ft. pline, 400 ft. from runway, 162 ft. left of centerline, 11:1 slope to clear

Airport Ownership and Management from official FAA records

Ownership: Privately-owned
Owner: ELLIOT & ELLIOTT INC
BOX 257 491 S MAIN ST
MT VICTORY, OH 43340-0257
Phone 937-354-2851
Manager: JOAN E. WAGNER
BOX 257 491 S MAIN ST
MT VICTORY, OH 43340-0257
Phone 937-354-2851

Airport Operational Statistics

Aircraft operations: avg 30/week *
100% transient general aviation
* for 12-month period ending 03 September 2016

Instrument Procedures

There are no published instrument procedures at O74.

Some nearby airports with instrument procedures:

I95 - Hardin County Airport (8 nm NW)
KEDJ - Bellefontaine Regional Airport (17 nm SW)
KMRT - Union County Airport (19 nm S)
KMNN - Marion Municipal Airport (21 nm E)
56D - Wyandot County Airport (23 nm NE)
 
Loc | Ops | Rwys | IFR | FBO | Links
Com | Nav | Svcs | Stats | Notes

AirNav Hotels Sweepstakes
 
Area around O74 (Elliot's Landing Airport)
 
Road maps at: MapQuest Bing Google
 
Aerial photo
WARNING: Photo may not be current or correct
Aerial photo of O74 (Elliot's Landing Airport)
Do you have a better or more recent aerial photo of Elliot's Landing Airport that you would like to share? If so, please send us your photo.

 
Sectional chart

 
Airport distance calculator
Flying to Elliot's Landing Airport? Find the distance to fly.

From to O74

Sunrise and sunset
Times for 22-May-2018
 Local
(UTC-4)
 Zulu
(UTC)
Morning civil twilight05:4109:41
Sunrise06:1210:12
Sunset20:4900:49
Evening civil twilight21:2101:21

Current date and time
Zulu (UTC)  22-May-2018 06:18:07
Local (UTC-4)  22-May-2018 02:18:07
 
METAR
KEDJ 
17nm SW 
220555Z AUTO 16011KT 10SM CLR 18/18 A3003 RMK AO1 P0001
KMRT 
19nm S 
220555Z AUTO 18006KT 7SM SCT035 SCT043 BKN080 19/18 A3004 RMK AO2 P0002 60160 T01850177 10259 20172 402800135
KMNN 
21nm E 
220553Z AUTO 17009KT 10SM OVC090 18/18 A3004 RMK AO2 RAE37 SLP167 P0002 60048 T01830178 10189 20183 58008 $
KDLZ 
23nm SE 
220557Z AUTO 15005KT 10SM -RA SCT003 BKN050 OVC110 18/18 A3005 RMK AO2 P0004 LTG DSNT S
KAOH 
25nm NW 
220553Z AUTO 17008KT 10SM FEW055 BKN085 BKN110 18/18 A3002 RMK AO2 SLP158 60008 T01830178 10189 20161 58008
KFDY 
30nm N 
220553Z AUTO 15005KT 6SM BR FEW060 OVC080 18/17 A3001 RMK AO2 SLP153 60003 T01780172 10178 20156 58010
KOSU 
33nm SE 
220553Z AUTO 13007KT 9SM -RA FEW003 OVC110 19/18 A3004 RMK AO2 SLP167 P0009 60120 T01890183 10256 20178 58021
TAF
KFDY 
30nm N 
220535Z 2206/2306 12005KT P6SM OVC060 TEMPO 2206/2210 5SM BR FM221000 25004KT 4SM BR OVC020 FM221600 26010KT P6SM BKN040 FM230200 30009KT P6SM SCT035
NOTAMs
Click for the latest NOTAMs
NOTAMs are issued by the DoD/FAA and will open in a separate window not controlled by AirNav.

 

 
 

Would you like to see your business listed on this page?

 If your business provides an interesting product or service to pilots, flight crews, aircraft, or users of the Elliot's Landing Airport, you should consider listing it here.  To start the listing process, click on the button below
 
Add a business
 

Other Pages about Elliot's Landing Airport

Update a link
 
Copyright © AirNav, LLC. All rights reserved. Privacy Policy  Contact